Regional Weather Roundup
Issued by NWS

Home | Current Version | Previous Version | Graphics & Text | Print | Product List | Glossary On
Versions: 1 2 3 4 5 6 7 8 9 10 11 12 13 14 15 16 17 18 19 20 21 22 23 24 25 26 27 28 29 30 31 32 33 34 35 36 37 38 39 40 41 42 43 44 45 46 47 48 49 50
000
ASUS43 KLSX 062210
RWRMO

WEATHER SUMMARY FOR MISSOURI
NATIONAL WEATHER SERVICE SPRINGFIELD MO
500 PM CDT FRI MAY 06 2016

NOTE: "FAIR" INDICATES FEW OR NO CLOUDS BELOW 12,000 FEET WITH NO
       SIGNIFICANT WEATHER AND/OR OBSTRUCTIONS TO VISIBILITY.
       CURRENT SKY AND/OR WEATHER CONDITIONS ARE NOT AVAILABLE FOR
       CHILLICOTHE AND FARMINGTON.

MOZ001>031-035>038-043-044-053-054-062300-
...NORTHERN AND WESTERN MISSOURI...

CITY           SKY/WX    TMP DP  RH WIND       PRES   REMARKS
KANSAS CTY INT PTSUNNY   81  51  35 SW12      29.97F
KANSAS C DTWN  SUNNY     83  48  29 SW7       29.95F
LEE`S SUMMIT   SUNNY     81  48  31 S12       29.98F
ST JOSEPH      SUNNY     83  48  29 SW14G22   29.94F
CHILLICOTHE      N/A     83  51  33 SW6       29.96F
KIRKSVILLE     SUNNY     81  48  31 SW13      29.95F

$$
MOZ066>068-077>081-088>096-101>105-062300-
...SOUTHWEST MISSOURI...

CITY           SKY/WX    TMP DP  RH WIND       PRES   REMARKS
SPRINGFIELD    SUNNY     77  45  32 VRB5      30.03F
JOPLIN         SUNNY     78  49  35 SW5       30.02F
BRANSON        MOSUNNY   77  39  25 NW3       30.06F

$$
MOZ032>034-039>042-045>050-055>058-069>072-062300-
...CENTRAL MISSOURI...

CITY           SKY/WX    TMP DP  RH WIND       PRES   REMARKS
COLUMBIA       SUNNY     79  48  33 SW10      29.98F
JEFFERSON CITY SUNNY     80  45  28 W9        29.97F
ROLLA          SUNNY     75  49  39 SW7       29.99F
SEDALIA        SUNNY     79  47  32 W9        30.01F
WHITEMAN AFB   SUNNY     79  51  37 SW10      29.98F
WARRENSBURG    SUNNY     79  46  31 S6        29.99F
OSAGE BEACH    SUNNY     81  45  28 SW6       30.01F

$$
MOZ051-052-059>065-062300-
...EAST CENTRAL MISSOURI...

CITY           SKY/WX    TMP DP  RH WIND       PRES   REMARKS
ST LOUIS INTL  MOSUNNY   81  45  28 W13       29.96F
SPIRIT OF STL  SUNNY     79  47  32 SW10      29.96F
ST CHARLES     SUNNY     80  45  28 W15       29.94F

$$
MOZ072>076-082>087-097>100-106>115-062300-
...SOUTH CENTRAL AND SOUTHEAST MISSOURI...

CITY           SKY/WX    TMP DP  RH WIND       PRES   REMARKS
CAPE GIRARDEAU SUNNY     76  43  30 N8        29.99F
FARMINGTON     SUNNY     77  45  32 W7        30.00F
POPLAR BLUFF   SUNNY     77  43  29 CALM      29.99F
WEST PLAINS    SUNNY     78  44  29 NW5       30.03F

$$




USA.gov is the U.S. government's official web portal to all federal, state and local government web resources and services.